Weather History for Erie, PA

Change the Weather History Date:

Tuesday, February 19, 2013

  Actual Average Record
Temperature  
Mean Temperature 34 °F 29 °F  
Max Temperature 47 °F 36 °F 65 °F (1948)
Min Temperature 20 °F 21 °F -4 °F (1903)
Degree Days  
Heating Degree Days 31 36  
Month to date heating degree days 731 710  
Since 1 July heating degree days 3771 4048  
Cooling Degree Days 0 0  
Month to date cooling degree days 0 0  
Year to date cooling degree days 0 0  
Moisture  
Dew Point 23 °F    
Average Humidity 67    
Maximum Humidity 89    
Minimum Humidity 45    
Precipitation  
Precipitation 0.38 in 0.09 in 1.65 in (1981)
Month to date precipitation 1.72 1.58  
Year to date precipitation 5.04 4.53  
Snow  
Snow 2.10 in 0.60 in - ()
Month to date snowfall 21.5 12.8  
Since 1 July snowfall 74.0 78.6  
Snow Depth 0.00 in    
Sea Level Pressure  
Sea Level Pressure 29.75 in    
Wind  
Wind Speed 19 mph (WSW)    
Max Wind Speed 32 mph    
Max Gust Speed 45 mph    
Visibility 4 miles    
Events Fog , Rain , Snow    
T = Trace of Precipitation, MM = Missing Value Source: NWS Daily Summary

Daily Weather History Graph

Daily Weather History Graph

Search for Another Location

Airport:

Trip Planner

Search our weather history database for the weather conditions in past years. The results will help you decide how hot, cold, wet, or windy it might be!

Date:

Astronomy

Feb. 19, 2013 Rise Set
Actual Time 7:10 AM EST 5:58 PM EST
Civil Twilight 6:42 AM EST 6:27 PM EST
Nautical Twilight 6:09 AM EST 6:59 PM EST
Astronomical Twilight 5:37 AM EST 7:32 PM EST
Moon 12:26 PM EST (2/19) 2:44 AM EST (2/19)
Length of Visible Light 11h 45m
Length of Day
10h 48m
Waxing Gibbous, 67% of the Moon is Illuminated
Feb 19
Waxing Gibbous
Feb 25
Full
Mar 4
Last Quarter
Mar 11
New
Mar 19
First Quarter

Hourly Weather History & Observations

Time (EST) Temp. Windchill Dew Point Humidity Pressure Visibility Wind Dir Wind Speed Gust Speed Precip Events Conditions
12:51 AM 45.0 °F 37.1 °F 26.1 °F 48% 29.76 in 10.0 mi South 19.6 mph 28.8 mph N/A   Clear
1:51 AM 45.0 °F 38.5 °F 26.1 °F 48% 29.74 in 10.0 mi South 13.8 mph 25.3 mph N/A   Overcast
2:51 AM 46.0 °F 39.0 °F 26.1 °F 46% 29.73 in 10.0 mi South 17.3 mph - N/A   Scattered Clouds
3:51 AM 39.9 °F 30.8 °F 35.1 °F 83% 29.70 in 6.0 mi South 18.4 mph 35.7 mph 0.08 in Rain Light Rain
4:51 AM 39.0 °F 28.0 °F 34.0 °F 82% 29.64 in 10.0 mi SSE 25.3 mph 34.5 mph 0.03 in Rain Light Rain
5:51 AM 39.0 °F 28.5 °F 35.1 °F 86% 29.62 in 10.0 mi South 23.0 mph 34.5 mph 0.00 in Rain Light Rain
6:51 AM 39.0 °F 28.5 °F 35.1 °F 86% 29.60 in 10.0 mi South 23.0 mph - 0.04 in Rain Light Rain
7:51 AM 41.0 °F 31.6 °F 35.1 °F 79% 29.61 in 10.0 mi South 20.7 mph 28.8 mph 0.00 in   Overcast
7:58 AM 41.0 °F 30.9 °F 35.6 °F 81% 29.59 in 10.0 mi South 24.2 mph 33.4 mph N/A   Overcast
8:51 AM 42.1 °F 33.3 °F 36.0 °F 79% 29.58 in 10.0 mi South 19.6 mph 26.5 mph 0.01 in   Overcast
9:43 AM 35.6 °F 24.8 °F 33.8 °F 93% 29.60 in 5.0 mi West 19.6 mph 32.2 mph 0.00 in Snow Light Snow
9:47 AM 33.8 °F 21.6 °F 30.2 °F 87% 29.61 in 1.8 mi West 23.0 mph 32.2 mph 0.00 in Snow Light Snow
9:51 AM 34.0 °F 23.0 °F 30.9 °F 89% 29.62 in 0.8 mi WSW 18.4 mph 29.9 mph 0.02 in Snow Light Snow
9:53 AM 33.8 °F 23.5 °F 30.2 °F 87% 29.61 in 0.5 mi WSW 16.1 mph 29.9 mph 0.01 in Fog , Snow Snow
10:02 AM 33.8 °F 24.3 °F 30.2 °F 87% 29.61 in 0.5 mi WSW 13.8 mph 26.5 mph 0.04 in Fog , Snow Snow
10:51 AM 33.1 °F 23.4 °F 30.9 °F 92% 29.63 in 1.0 mi WSW 13.8 mph 24.2 mph 0.10 in Snow Light Snow
10:57 AM 33.8 °F 23.5 °F 30.2 °F 87% 29.62 in 3.0 mi WSW 16.1 mph 24.2 mph 0.00 in Snow Light Snow
11:37 AM 32.0 °F 20.5 °F 28.4 °F 87% 29.63 in 6.0 mi West 18.4 mph 28.8 mph 0.00 in   Overcast
11:51 AM 32.0 °F 18.6 °F 28.0 °F 85% 29.65 in 9.0 mi West 25.3 mph 39.1 mph 0.00 in   Overcast
1:17 PM 30.2 °F 17.1 °F 23.0 °F 75% 29.65 in 10.0 mi West 21.9 mph 34.5 mph N/A   Overcast
1:47 PM 28.4 °F 17.5 °F 24.8 °F 86% 29.66 in 10.0 mi West 13.8 mph 34.5 mph N/A   Overcast
1:51 PM 28.9 °F 15.1 °F 24.1 °F 82% 29.69 in 10.0 mi West 23.0 mph 34.5 mph N/A   Overcast
2:18 PM 30.2 °F 17.4 °F 24.8 °F 80% 29.67 in 10.0 mi West 20.7 mph 35.7 mph N/A   Overcast
2:51 PM 30.0 °F 19.1 °F 21.0 °F 69% 29.71 in 7.0 mi WSW 15.0 mph 25.3 mph 0.00 in Snow Light Snow
3:00 PM 30.2 °F 21.3 °F 21.2 °F 69% 29.69 in 10.0 mi WSW 10.4 mph 25.3 mph 0.00 in   Overcast
3:31 PM 28.4 °F 15.1 °F 21.2 °F 74% 29.70 in 1.8 mi West 20.7 mph 26.5 mph 0.00 in Snow Light Snow
3:42 PM 28.4 °F 15.8 °F 24.8 °F 86% 29.70 in 0.8 mi West 18.4 mph 27.6 mph 0.00 in Snow Light Snow
3:51 PM 28.0 °F 15.3 °F 24.1 °F 85% 29.73 in 0.8 mi West 18.4 mph 26.5 mph 0.00 in Snow Light Snow
4:01 PM 28.4 °F 15.4 °F 24.8 °F 86% 29.71 in 0.5 mi West 19.6 mph 27.6 mph 0.00 in Fog , Snow Snow
4:10 PM 28.4 °F 18.0 °F 24.8 °F 86% 29.71 in 0.2 mi West 12.7 mph 27.6 mph 0.00 in Fog , Snow Snow
4:18 PM 26.6 °F 15.2 °F 24.8 °F 93% 29.71 in 0.2 mi West 13.8 mph 29.9 mph 0.00 in Fog , Snow Snow
4:27 PM 26.6 °F 12.4 °F 23.0 °F 86% 29.71 in 0.8 mi West 21.9 mph 38.0 mph 0.00 in Snow Light Snow
4:36 PM 26.6 °F 11.7 °F 23.0 °F 86% 29.72 in 0.8 mi West 24.2 mph 38.0 mph 0.00 in Snow Light Snow
4:51 PM 27.0 °F 13.9 °F 21.9 °F 81% 29.75 in 0.8 mi WSW 18.4 mph 36.8 mph 0.00 in Snow Light Snow
5:47 PM 24.8 °F 9.3 °F 21.2 °F 86% 29.77 in 0.2 mi West 24.2 mph 34.5 mph 0.00 in Fog , Snow Snow
5:51 PM 25.0 °F 12.6 °F 21.9 °F 88% 29.79 in 0.2 mi WSW 15.0 mph 34.5 mph 0.01 in Fog , Snow Heavy Snow
6:11 PM 24.8 °F 14.0 °F 21.2 °F 86% 29.78 in 0.5 mi WSW 11.5 mph 36.8 mph 0.00 in Fog , Snow Snow
6:21 PM 24.8 °F 11.5 °F 21.2 °F 86% 29.78 in 0.5 mi WSW 17.3 mph 33.4 mph 0.00 in Fog , Snow Snow
6:30 PM 24.8 °F 10.7 °F 21.2 °F 86% 29.79 in 0.5 mi WSW 19.6 mph 38.0 mph 0.00 in Fog , Snow Snow
7:49 PM 24.8 °F 9.0 °F 15.8 °F 69% 29.83 in 2.5 mi WSW 25.3 mph 34.5 mph 0.00 in Snow Light Snow
7:51 PM 24.1 °F 9.8 °F 16.0 °F 71% 29.85 in 2.5 mi WSW 19.6 mph 34.5 mph 0.00 in Snow Light Snow
8:08 PM 24.8 °F 9.0 °F 17.6 °F 74% 29.83 in 1.8 mi West 25.3 mph 34.5 mph 0.00 in Snow Light Snow
8:15 PM 23.0 °F 7.6 °F 17.6 °F 80% 29.83 in 1.2 mi West 21.9 mph 36.8 mph 0.00 in Snow Light Snow
8:51 PM 23.0 °F 9.2 °F 17.1 °F 78% 29.86 in 1.5 mi WSW 17.3 mph 33.4 mph 0.00 in Snow Light Snow
9:07 PM 23.0 °F 8.7 °F 17.6 °F 80% 29.84 in 0.8 mi WSW 18.4 mph 34.5 mph 0.00 in Snow Light Snow
9:17 PM 21.2 °F 7.3 °F 17.6 °F 86% 29.84 in 1.0 mi WSW 16.1 mph 38.0 mph 0.00 in Snow Light Snow
9:20 PM 21.2 °F 6.8 °F 17.6 °F 86% 29.84 in 0.8 mi WSW 17.3 mph 38.0 mph 0.00 in Snow Light Snow
9:31 PM 21.2 °F 8.9 °F 17.6 °F 86% 29.85 in 0.5 mi WSW 12.7 mph 26.5 mph 0.00 in Fog , Snow Snow
9:46 PM 21.2 °F 6.0 °F 17.6 °F 86% 29.85 in 0.5 mi WSW 19.6 mph 31.1 mph 0.01 in Fog , Snow Snow
9:51 PM 21.9 °F 8.7 °F 18.0 °F 85% 29.88 in 1.0 mi WSW 15.0 mph 31.1 mph 0.01 in Snow Light Snow
10:00 PM 21.2 °F 8.3 °F 17.6 °F 86% 29.85 in 0.5 mi WSW 13.8 mph 32.2 mph 0.00 in Fog , Snow Light Snow
10:03 PM 21.2 °F 6.0 °F 17.6 °F 86% 29.85 in 0.8 mi West 19.6 mph 27.6 mph 0.00 in Snow Light Snow
10:11 PM 21.2 °F 7.8 °F 17.6 °F 86% 29.85 in 0.8 mi SW 15.0 mph 31.1 mph 0.00 in Snow Light Snow
10:16 PM 21.2 °F 8.3 °F 17.6 °F 86% 29.85 in 0.5 mi WSW 13.8 mph 31.1 mph 0.01 in Fog , Snow Snow
10:21 PM 21.2 °F 8.9 °F 17.6 °F 86% 29.86 in 1.0 mi SW 12.7 mph 23.0 mph 0.01 in Snow Light Snow
10:37 PM 21.2 °F 7.8 °F 17.6 °F 86% 29.86 in 2.0 mi WSW 15.0 mph 24.2 mph 0.01 in Snow Light Snow
10:42 PM 21.2 °F 7.8 °F 17.6 °F 86% 29.86 in 1.5 mi WSW 15.0 mph 27.6 mph 0.01 in Snow Light Snow
10:51 PM 21.0 °F 7.6 °F 17.1 °F 85% 29.89 in 0.8 mi SW 15.0 mph 28.8 mph 0.02 in Snow Light Snow
10:59 PM 21.2 °F 9.5 °F 17.6 °F 86% 29.86 in 1.2 mi West 11.5 mph 21.9 mph 0.00 in Snow Light Snow
11:02 PM 21.2 °F 6.0 °F 17.6 °F 86% 29.85 in 0.5 mi West 19.6 mph 28.8 mph N/A Fog , Snow Snow
11:14 PM 21.2 °F 8.9 °F 17.6 °F 86% 29.86 in 1.0 mi WSW 12.7 mph 31.1 mph 0.00 in Snow Light Snow
11:22 PM 21.2 °F 6.8 °F 15.8 °F 80% 29.86 in 2.5 mi West 17.3 mph 26.5 mph 0.00 in Snow Light Snow
11:32 PM 21.2 °F 6.0 °F 15.8 °F 80% 29.86 in 1.2 mi WSW 19.6 mph 33.4 mph 0.00 in Snow Light Snow
11:45 PM 21.2 °F 9.5 °F 17.6 °F 86% 29.86 in 0.8 mi SW 11.5 mph 19.6 mph 0.00 in Snow Light Snow
11:51 PM 19.9 °F 7.3 °F 17.1 °F 89% 29.89 in 1.0 mi SW 12.7 mph 18.4 mph 0.01 in Snow Light Snow